TimeEDT,TemperatureF,Dew PointF,Humidity,Sea Level PressureIn,VisibilityMPH,Wind Direction,Wind SpeedMPH,Gust SpeedMPH,PrecipitationIn,Events,Conditions,WindDirDegrees,DateUTC
12:54 AM,30.9,8.1,38,29.72,10.0,WNW,11.5,21.9,N/A,,Clear,290,2013-04-02 04:54:00
1:54 AM,28.9,10.0,45,29.73,10.0,Variable,5.8,-,N/A,,Scattered Clouds,0,2013-04-02 05:54:00
2:54 AM,28.9,10.9,47,29.73,10.0,Variable,3.5,-,N/A,,Mostly Cloudy,0,2013-04-02 06:54:00
3:54 AM,28.0,14.0,56,29.74,10.0,NW,8.1,17.3,N/A,,Mostly Cloudy,310,2013-04-02 07:54:00
4:54 AM,25.0,14.0,63,29.75,10.0,WNW,3.5,-,N/A,,Clear,290,2013-04-02 08:54:00
5:54 AM,23.0,14.0,68,29.76,10.0,West,3.5,-,N/A,,Partly Cloudy,260,2013-04-02 09:54:00
6:54 AM,21.9,14.0,72,29.77,10.0,Calm,Calm,-,N/A,,Partly Cloudy,0,2013-04-02 10:54:00
7:54 AM,27.0,12.9,56,29.78,10.0,West,4.6,-,N/A,,Overcast,280,2013-04-02 11:54:00
8:54 AM,28.9,10.9,47,29.79,10.0,West,11.5,19.6,N/A,,Partly Cloudy,280,2013-04-02 12:54:00
9:54 AM,32.0,8.1,37,29.78,10.0,WNW,10.4,18.4,0.00,,Scattered Clouds,290,2013-04-02 13:54:00
10:54 AM,30.9,7.0,37,29.78,10.0,West,9.2,17.3,0.00,,Overcast,270,2013-04-02 14:54:00
11:54 AM,34.0,7.0,32,29.78,10.0,West,11.5,24.2,N/A,,Overcast,260,2013-04-02 15:54:00
12:54 PM,32.0,5.0,32,29.75,10.0,WSW,9.2,-,0.00,,Overcast,240,2013-04-02 16:54:00
1:54 PM,36.0,8.1,31,29.74,10.0,WSW,15.0,20.7,0.00,,Overcast,250,2013-04-02 17:54:00
2:54 PM,34.0,7.0,32,29.73,10.0,West,12.7,18.4,N/A,,Overcast,270,2013-04-02 18:54:00
3:54 PM,33.1,9.0,37,29.72,10.0,West,8.1,16.1,N/A,,Overcast,280,2013-04-02 19:54:00
4:54 PM,33.1,8.1,35,29.73,10.0,West,13.8,20.7,N/A,,Overcast,270,2013-04-02 20:54:00
5:54 PM,32.0,10.9,42,29.77,10.0,WNW,10.4,28.8,N/A,,Mostly Cloudy,300,2013-04-02 21:54:00
6:54 PM,30.0,9.0,41,29.79,10.0,WNW,8.1,-,N/A,,Scattered Clouds,290,2013-04-02 22:54:00
7:54 PM,30.0,10.0,43,29.80,10.0,West,10.4,21.9,N/A,,Mostly Cloudy,280,2013-04-02 23:54:00
8:54 PM,28.9,10.9,47,29.82,10.0,Calm,Calm,-,N/A,,Mostly Cloudy,0,2013-04-03 00:54:00
9:54 PM,30.0,10.0,43,29.83,10.0,West,8.1,19.6,N/A,,Overcast,270,2013-04-03 01:54:00
10:54 PM,30.0,10.9,45,29.82,10.0,West,6.9,18.4,N/A,,Overcast,270,2013-04-03 02:54:00
11:54 PM,30.0,12.9,49,29.81,10.0,West,11.5,24.2,N/A,,Overcast,260,2013-04-03 03:54:00